Location: Knowlton
(51.2333°N, 1.2667°E)
Time: 10:09:40
(UTC+00:00)

Iridium 4 Rocket - Pass Details

Date: 18 April 2021
Orbit: 586 x 903 km, 86.9° (Epoch: 05 May)

Event Time Altitude Azimuth Distance (km) Brightness Sun altitude
Exits shadow 23:11:57 51° 70° (ENE) 938 3.9 -26.9°
Drops below altitude 10° 23:16:41 10° 11° (NNE) 2,362 6.9 -27.1°
Sets 23:19:12 0° 7° (N) 3,347 8.0 -27.1°
